User: anonymous   Login
Location: Lake Arresoe
(56.0000°N, 12.5000°E)
Time: 12:22:04
(UTC+02:00)
Language:

ERS 2 DEB - Orbit

View from above orbital plane
View from above orbital plane
View from above satellite
View from above satellite

Ground track
Ground track

The orbit data is extracted from the following two-line orbital elements,

1 35392U 95021F   22228.90350454  .00001102  00000-0  35466-3 0  9996
2 35392  98.1676 215.7831 0005233  73.4372 286.7392 14.41129710766665
Epoch (UTC): 16 August 2022 21:41:02
Eccentricity: 0.0005233
inclination: 98.1676°
perigee height: 751 km
apogee height: 758 km
right ascension of ascending node: 215.7831°
argument of perigee: 73.4372°
revolutions per day: 14.41129710
mean anomaly at epoch: 286.7392°
orbit number at epoch: 76666

The dashed part of the orbit path shows where the satellite is in the earth's shadow,  

DLR